Saint Bonnet de Bellac- Haute Vienne - France
Donnes mto: jeudi, 22/03/2012
Date Horaire Temp. E. Hum. E. P.atmo. Pluie Vent Direction Direction Ensoleilleme Solaire P. de rose Temp au vent Rafales
22/03/2012 00:00 11,2 C 72 % 1022,7 hPa 0,0 mm 3,2 km/h (1 Bft) E-SE 112 0 min 0 W/m 6,3 C 11,2 C 6,8 km/h (2 Bft)
22/03/2012 00:10 11,4 C 70 % 1022,7 hPa 0,0 mm 6,8 km/h (2 Bft) E-SE 112 0 min 0 W/m 6,1 C 11,4 C 9,7 km/h (2 Bft)
22/03/2012 00:20 11,5 C 70 % 1022,6 hPa 0,0 mm 0,4 km/h (0 Bft) E 90 0 min 0 W/m 6,2 C 11,5 C 4,3 km/h (1 Bft)
22/03/2012 00:30 11,5 C 69 % 1022,6 hPa 0,0 mm 0,0 km/h (0 Bft) E-SE 112 0 min 0 W/m 6,0 C 11,5 C 0,0 km/h (0 Bft)
22/03/2012 00:40 11,4 C 69 % 1022,6 hPa 0,0 mm 0,4 km/h (0 Bft) E-SE 112 0 min 0 W/m 5,9 C 11,4 C 4,0 km/h (1 Bft)
22/03/2012 00:50 11,4 C 69 % 1022,5 hPa 0,0 mm 0,0 km/h (0 Bft) E-SE 112 0 min 0 W/m 5,9 C 11,4 C 0,0 km/h (0 Bft)
22/03/2012 01:00 11,5 C 69 % 1022,5 hPa 0,0 mm 0,0 km/h (0 Bft) E-SE 112 0 min 0 W/m 6,0 C 11,5 C 0,0 km/h (0 Bft)
22/03/2012 01:10 11,4 C 68 % 1022,4 hPa 0,0 mm 0,4 km/h (0 Bft) E-SE 112 0 min 0 W/m 5,7 C 11,4 C 3,2 km/h (1 Bft)
22/03/2012 01:20 11,4 C 68 % 1022,4 hPa 0,0 mm 0,0 km/h (0 Bft) E-SE 112 0 min 0 W/m 5,7 C 11,4 C 0,0 km/h (0 Bft)
22/03/2012 01:30 11,1 C 69 % 1022,4 hPa 0,0 mm 0,0 km/h (0 Bft) E-SE 112 0 min 0 W/m 5,6 C 11,1 C 0,0 km/h (0 Bft)
22/03/2012 01:40 10,7 C 70 % 1022,5 hPa 0,0 mm 0,0 km/h (0 Bft) E-SE 112 0 min 0 W/m 5,5 C 10,7 C 0,0 km/h (0 Bft)
22/03/2012 01:50 10,4 C 71 % 1022,6 hPa 0,0 mm 0,0 km/h (0 Bft) E-SE 112 0 min 0 W/m 5,4 C 10,4 C 0,0 km/h (0 Bft)
22/03/2012 02:02 10,2 C 72 % 1022,7 hPa 0,0 mm 0,0 km/h (0 Bft) E-SE 112 0 min 0 W/m 5,4 C 10,2 C 0,0 km/h (0 Bft)
22/03/2012 02:10 10,1 C 71 % 1022,8 hPa 0,0 mm 0,0 km/h (0 Bft) SE 135 0 min 0 W/m 5,1 C 10,1 C 2,9 km/h (1 Bft)
22/03/2012 02:20 10,2 C 70 % 1022,7 hPa 0,0 mm 0,0 km/h (0 Bft) SE 135 0 min 0 W/m 5,0 C 10,2 C 2,9 km/h (1 Bft)
22/03/2012 02:30 10,4 C 69 % 1022,7 hPa 0,0 mm 0,0 km/h (0 Bft) SE 135 0 min 0 W/m 5,0 C 10,4 C 0,0 km/h (0 Bft)
22/03/2012 02:40 10,4 C 68 % 1022,8 hPa 0,0 mm 0,0 km/h (0 Bft) SE 135 0 min 0 W/m 4,8 C 10,4 C 0,0 km/h (0 Bft)
22/03/2012 02:50 10,3 C 69 % 1022,9 hPa 0,0 mm 0,0 km/h (0 Bft) SE 135 0 min 0 W/m 4,9 C 10,3 C 0,0 km/h (0 Bft)
22/03/2012 03:00 9,9 C 69 % 1022,8 hPa 0,0 mm 0,0 km/h (0 Bft) SE 135 0 min 0 W/m 4,5 C 9,9 C 0,0 km/h (0 Bft)
22/03/2012 03:10 9,8 C 69 % 1022,8 hPa 0,0 mm 0,0 km/h (0 Bft) SE 135 0 min 0 W/m 4,4 C 9,8 C 0,0 km/h (0 Bft)
22/03/2012 03:20 9,7 C 69 % 1022,7 hPa 0,0 mm 0,0 km/h (0 Bft) SE 135 0 min 0 W/m 4,3 C 9,7 C 0,0 km/h (0 Bft)
22/03/2012 03:30 9,4 C 71 % 1022,8 hPa 0,0 mm 0,0 km/h (0 Bft) SE 135 0 min 0 W/m 4,4 C 9,4 C 0,0 km/h (0 Bft)
22/03/2012 03:40 9,2 C 71 % 1022,7 hPa 0,0 mm 0,0 km/h (0 Bft) SE 135 0 min 0 W/m 4,2 C 9,2 C 0,0 km/h (0 Bft)
22/03/2012 03:50 8,9 C 72 % 1022,8 hPa 0,0 mm 0,0 km/h (0 Bft) SE 135 0 min 0 W/m 4,1 C 8,9 C 0,0 km/h (0 Bft)
22/03/2012 04:00 8,8 C 72 % 1022,8 hPa 0,0 mm 0,0 km/h (0 Bft) SE 135 0 min 0 W/m 4,0 C 8,8 C 3,2 km/h (1 Bft)
22/03/2012 04:10 8,6 C 73 % 1022,8 hPa 0,0 mm 2,9 km/h (1 Bft) E-SE 112 0 min 0 W/m 4,0 C 8,6 C 4,0 km/h (1 Bft)
22/03/2012 04:20 8,6 C 73 % 1022,9 hPa 0,0 mm 0,0 km/h (0 Bft) E-SE 112 0 min 0 W/m 4,0 C 8,6 C 0,0 km/h (0 Bft)
22/03/2012 04:30 8,6 C 74 % 1022,8 hPa 0,0 mm 0,0 km/h (0 Bft) E-SE 112 0 min 0 W/m 4,2 C 8,6 C 0,0 km/h (0 Bft)
22/03/2012 04:40 8,4 C 74 % 1022,9 hPa 0,0 mm 0,0 km/h (0 Bft) E-SE 112 0 min 0 W/m 4,0 C 8,4 C 0,0 km/h (0 Bft)
22/03/2012 04:50 8,3 C 75 % 1022,8 hPa 0,0 mm 0,0 km/h (0 Bft) E-SE 112 0 min 0 W/m 4,1 C 8,3 C 0,0 km/h (0 Bft)
22/03/2012 05:00 8,1 C 75 % 1022,9 hPa 0,0 mm 0,0 km/h (0 Bft) E-SE 112 0 min 0 W/m 3,9 C 8,1 C 0,0 km/h (0 Bft)
22/03/2012 05:10 7,9 C 76 % 1022,9 hPa 0,0 mm 0,0 km/h (0 Bft) E-SE 112 0 min 0 W/m 3,9 C 7,9 C 0,0 km/h (0 Bft)
22/03/2012 05:20 7,8 C 77 % 1022,9 hPa 0,0 mm 0,0 km/h (0 Bft) E-SE 112 0 min 0 W/m 4,0 C 7,8 C 3,2 km/h (1 Bft)
22/03/2012 05:30 7,8 C 77 % 1023,0 hPa 0,0 mm 0,0 km/h (0 Bft) E-SE 112 0 min 0 W/m 4,0 C 7,8 C 0,0 km/h (0 Bft)
22/03/2012 05:40 7,7 C 78 % 1023,0 hPa 0,0 mm 0,0 km/h (0 Bft) E-SE 112 0 min 0 W/m 4,1 C 7,7 C 0,0 km/h (0 Bft)
22/03/2012 05:50 7,5 C 78 % 1023,1 hPa 0,0 mm 0,0 km/h (0 Bft) E-SE 112 0 min 0 W/m 3,9 C 7,5 C 0,0 km/h (0 Bft)
22/03/2012 06:00 7,5 C 79 % 1023,2 hPa 0,0 mm 0,0 km/h (0 Bft) E-SE 112 0 min 0 W/m 4,1 C 7,5 C 0,0 km/h (0 Bft)
22/03/2012 06:10 7,4 C 79 % 1023,2 hPa 0,0 mm 0,0 km/h (0 Bft) E-SE 112 0 min 0 W/m 4,0 C 7,4 C 0,0 km/h (0 Bft)
22/03/2012 06:20 7,3 C 80 % 1023,2 hPa 0,0 mm 0,0 km/h (0 Bft) E 90 0 min 0 W/m 4,1 C 7,3 C 0,0 km/h (0 Bft)
22/03/2012 06:30 7,2 C 80 % 1023,2 hPa 0,0 mm 0,0 km/h (0 Bft) E 90 0 min 0 W/m 4,0 C 7,2 C 0,0 km/h (0 Bft)
22/03/2012 06:40 7,1 C 81 % 1023,2 hPa 0,0 mm 0,0 km/h (0 Bft) E 90 0 min 0 W/m 4,1 C 7,1 C 0,0 km/h (0 Bft)
22/03/2012 06:50 7,2 C 81 % 1023,3 hPa 0,0 mm 0,0 km/h (0 Bft) E 90 0 min 0 W/m 4,2 C 7,2 C 0,0 km/h (0 Bft)
22/03/2012 07:00 7,1 C 81 % 1023,3 hPa 0,0 mm 0,0 km/h (0 Bft) E 90 0 min 0 W/m 4,1 C 7,1 C 0,0 km/h (0 Bft)
22/03/2012 07:10 7,1 C 82 % 1023,3 hPa 0,0 mm 0,0 km/h (0 Bft) E 90 2 min 0 W/m 4,2 C 7,1 C 0,0 km/h (0 Bft)
22/03/2012 07:20 6,9 C 82 % 1023,4 hPa 0,0 mm 0,0 km/h (0 Bft) E 90 2 min 0 W/m 4,0 C 6,9 C 0,0 km/h (0 Bft)
22/03/2012 07:30 7,1 C 82 % 1023,4 hPa 0,0 mm 0,0 km/h (0 Bft) E 90 2 min 0 W/m 4,2 C 7,1 C 0,0 km/h (0 Bft)
22/03/2012 07:40 7,2 C 82 % 1023,4 hPa 0,0 mm 0,0 km/h (0 Bft) E 90 2 min 0 W/m 4,3 C 7,2 C 0,0 km/h (0 Bft)
22/03/2012 07:50 7,2 C 82 % 1023,5 hPa 0,0 mm 0,0 km/h (0 Bft) E 90 2 min 0 W/m 4,3 C 7,2 C 0,0 km/h (0 Bft)
22/03/2012 08:00 7,4 C 82 % 1023,6 hPa 0,0 mm 0,0 km/h (0 Bft) N 360 2 min 0 W/m 4,5 C 7,4 C 0,0 km/h (0 Bft)
22/03/2012 08:10 7,4 C 82 % 1023,6 hPa 0,0 mm 0,0 km/h (0 Bft) E 90 2 min 0 W/m 4,5 C 7,4 C 0,0 km/h (0 Bft)
22/03/2012 08:20 7,6 C 82 % 1023,7 hPa 0,0 mm 0,0 km/h (0 Bft) E 90 2 min 0 W/m 4,7 C 7,6 C 0,0 km/h (0 Bft)
22/03/2012 08:30 7,8 C 82 % 1023,6 hPa 0,0 mm 0,0 km/h (0 Bft) E 90 2 min 0 W/m 4,9 C 7,8 C 0,0 km/h (0 Bft)
22/03/2012 08:40 7,9 C 82 % 1023,7 hPa 0,0 mm 0,0 km/h (0 Bft) E 90 2 min 0 W/m 5,0 C 7,9 C 0,0 km/h (0 Bft)
22/03/2012 08:50 8,2 C 82 % 1023,8 hPa 0,0 mm 0,0 km/h (0 Bft) E 90 2 min 0 W/m 5,3 C 8,2 C 0,0 km/h (0 Bft)
22/03/2012 09:00 8,3 C 82 % 1023,8 hPa 0,0 mm 0,0 km/h (0 Bft) E 90 2 min 0 W/m 5,4 C 8,3 C 0,0 km/h (0 Bft)
22/03/2012 09:10 8,5 C 81 % 1023,9 hPa 0,0 mm 1,8 km/h (1 Bft) SE 135 2 min 0 W/m 5,4 C 8,5 C 4,3 km/h (1 Bft)
22/03/2012 09:20 9,1 C 76 % 1023,9 hPa 0,0 mm 2,5 km/h (1 Bft) E-SE 112 2 min 0 W/m 5,1 C 9,1 C 6,1 km/h (2 Bft)
22/03/2012 09:30 9,4 C 75 % 1024,1 hPa 0,0 mm 0,7 km/h (0 Bft) E-SE 112 2 min 0 W/m 5,2 C 9,4 C 4,0 km/h (1 Bft)
22/03/2012 09:40 9,6 C 73 % 1024,1 hPa 0,0 mm 0,0 km/h (0 Bft) SE 135 2 min 0 W/m 5,0 C 9,6 C 0,0 km/h (0 Bft)
22/03/2012 09:50 9,8 C 73 % 1024,1 hPa 0,0 mm 1,1 km/h (1 Bft) SE 135 2 min 0 W/m 5,2 C 9,8 C 4,3 km/h (1 Bft)
22/03/2012 10:00 10,1 C 73 % 1024,1 hPa 0,0 mm 1,4 km/h (1 Bft) E-SE 112 2 min 0 W/m 5,5 C 10,1 C 1,4 km/h (1 Bft)
22/03/2012 10:10 9,9 C 75 % 1024,1 hPa 0,0 mm 0,0 km/h (0 Bft) E-SE 112 2 min 0 W/m 5,7 C 9,9 C 0,0 km/h (0 Bft)
22/03/2012 10:20 9,8 C 75 % 1024,1 hPa 0,0 mm 0,0 km/h (0 Bft) E-SE 112 2 min 0 W/m 5,6 C 9,8 C 0,0 km/h (0 Bft)
22/03/2012 10:30 9,7 C 76 % 1024,1 hPa 0,0 mm 0,4 km/h (0 Bft) E-SE 112 2 min 0 W/m 5,7 C 9,7 C 0,4 km/h (0 Bft)
22/03/2012 10:40 9,6 C 76 % 1023,9 hPa 0,0 mm 0,0 km/h (0 Bft) E 90 2 min 0 W/m 5,6 C 9,6 C 0,0 km/h (0 Bft)
22/03/2012 10:50 9,7 C 77 % 1023,8 hPa 0,0 mm 1,1 km/h (1 Bft) S 180 2 min 0 W/m 5,9 C 9,7 C 1,1 km/h (1 Bft)
22/03/2012 11:00 9,9 C 78 % 1023,8 hPa 0,0 mm 3,2 km/h (1 Bft) NE 45 2 min 0 W/m 6,2 C 9,9 C 6,8 km/h (2 Bft)
22/03/2012 11:10 9,8 C 77 % 1023,7 hPa 0,0 mm 0,7 km/h (0 Bft) E-NE 67 2 min 0 W/m 6,0 C 9,8 C 3,6 km/h (1 Bft)
22/03/2012 11:20 10,1 C 75 % 1023,5 hPa 0,0 mm 1,1 km/h (1 Bft) E 90 2 min 0 W/m 5,9 C 10,1 C 1,1 km/h (1 Bft)
22/03/2012 11:30 10,6 C 73 % 1023,5 hPa 0,0 mm 2,2 km/h (1 Bft) E-SE 112 2 min 0 W/m 6,0 C 10,6 C 6,8 km/h (2 Bft)
22/03/2012 11:40 11,2 C 70 % 1023,6 hPa 0,0 mm 2,5 km/h (1 Bft) E 90 2 min 0 W/m 5,9 C 11,2 C 4,3 km/h (1 Bft)
22/03/2012 11:50 11,8 C 68 % 1023,3 hPa 0,0 mm 4,7 km/h (1 Bft) E 90 2 min 0 W/m 6,1 C 11,8 C 7,9 km/h (2 Bft)
22/03/2012 12:00 12,4 C 66 % 1023,4 hPa 0,0 mm 0,4 km/h (0 Bft) E 90 2 min 0 W/m 6,2 C 12,4 C 2,9 km/h (1 Bft)
22/03/2012 12:10 12,9 C 66 % 1023,3 hPa 0,0 mm 2,2 km/h (1 Bft) NE 45 2 min 0 W/m 6,7 C 12,9 C 4,3 km/h (1 Bft)
22/03/2012 12:20 13,4 C 67 % 1023,4 hPa 0,0 mm 1,4 km/h (1 Bft) NE 45 2 min 0 W/m 7,4 C 13,4 C 4,3 km/h (1 Bft)
22/03/2012 12:30 13,8 C 67 % 1023,4 hPa 0,0 mm 0,0 km/h (0 Bft) NE 45 2 min 0 W/m 7,8 C 13,8 C 0,0 km/h (0 Bft)
22/03/2012 12:40 14,3 C 65 % 1023,5 hPa 0,0 mm 1,4 km/h (1 Bft) NE 45 2 min 0 W/m 7,8 C 14,3 C 4,3 km/h (1 Bft)
22/03/2012 12:50 15,0 C 63 % 1023,3 hPa 0,0 mm 1,1 km/h (1 Bft) E-NE 67 2 min 0 W/m 8,0 C 15,0 C 3,2 km/h (1 Bft)
22/03/2012 13:00 16,0 C 59 % 1023,5 hPa 0,0 mm 0,0 km/h (0 Bft) E-NE 67 2 min 0 W/m 8,0 C 16,0 C 0,0 km/h (0 Bft)
22/03/2012 13:10 16,8 C 54 % 1023,6 hPa 0,0 mm 1,1 km/h (1 Bft) S-SE 157 2 min 0 W/m 7,4 C 16,8 C 4,0 km/h (1 Bft)
22/03/2012 13:20 17,2 C 49 % 1023,6 hPa 0,0 mm 8,6 km/h (2 Bft) S 180 2 min 0 W/m 6,4 C 17,2 C 9,4 km/h (2 Bft)
22/03/2012 13:30 17,1 C 48 % 1023,6 hPa 0,0 mm 2,9 km/h (1 Bft) S-SO 202 2 min 0 W/m 6,0 C 17,1 C 7,2 km/h (2 Bft)
22/03/2012 13:40 16,9 C 48 % 1023,6 hPa 0,0 mm 4,3 km/h (1 Bft) S-SE 157 2 min 0 W/m 5,8 C 16,9 C 4,3 km/h (1 Bft)
22/03/2012 13:50 16,8 C 47 % 1023,2 hPa 0,0 mm 5,0 km/h (1 Bft) S-SO 202 2 min 0 W/m 5,4 C 16,8 C 5,0 km/h (1 Bft)
22/03/2012 14:00 16,8 C 48 % 1023,1 hPa 0,0 mm 7,9 km/h (2 Bft) S-SE 157 2 min 0 W/m 5,7 C 16,8 C 8,3 km/h (2 Bft)
22/03/2012 14:10 16,8 C 48 % 1023,1 hPa 0,0 mm 3,6 km/h (1 Bft) SE 135 2 min 0 W/m 5,7 C 16,8 C 4,3 km/h (1 Bft)
22/03/2012 14:20 17,1 C 48 % 1023,3 hPa 0,0 mm 6,8 km/h (2 Bft) S-SE 157 2 min 0 W/m 6,0 C 17,1 C 9,0 km/h (2 Bft)
22/03/2012 14:30 17,4 C 47 % 1023,3 hPa 0,0 mm 4,3 km/h (1 Bft) S-SE 157 2 min 0 W/m 6,0 C 17,4 C 6,5 km/h (2 Bft)
22/03/2012 14:40 17,6 C 45 % 1023,2 hPa 0,0 mm 4,0 km/h (1 Bft) S-SE 157 2 min 0 W/m 5,5 C 17,6 C 4,0 km/h (1 Bft)
22/03/2012 14:50 17,9 C 44 % 1023,1 hPa 0,0 mm 4,3 km/h (1 Bft) S-SE 157 2 min 0 W/m 5,5 C 17,9 C 4,3 km/h (1 Bft)
22/03/2012 15:00 18,3 C 41 % 1023,1 hPa 0,0 mm 7,2 km/h (2 Bft) S-SO 202 2 min 0 W/m 4,8 C 18,3 C 11,9 km/h (2 Bft)
22/03/2012 15:10 18,3 C 41 % 1023,0 hPa 0,0 mm 6,8 km/h (2 Bft) S 180 2 min 0 W/m 4,8 C 18,3 C 10,1 km/h (2 Bft)
22/03/2012 15:20 18,4 C 39 % 1023,0 hPa 0,0 mm 9,4 km/h (2 Bft) S-SO 202 2 min 0 W/m 4,2 C 18,4 C 13,3 km/h (3 Bft)
22/03/2012 15:30 18,3 C 41 % 1023,0 hPa 0,0 mm 5,4 km/h (2 Bft) S 180 2 min 0 W/m 4,8 C 18,3 C 6,1 km/h (2 Bft)
22/03/2012 15:40 18,1 C 38 % 1022,9 hPa 0,0 mm 10,4 km/h (2 Bft) SO 225 2 min 0 W/m 3,6 C 18,1 C 15,5 km/h (3 Bft)
22/03/2012 15:50 18,0 C 39 % 1022,8 hPa 0,1 mm 9,7 km/h (2 Bft) SO 225 2 min 0 W/m 3,8 C 18,0 C 11,9 km/h (2 Bft)
22/03/2012 16:00 17,7 C 40 % 1022,8 hPa 0,0 mm 8,6 km/h (2 Bft) S-SO 202 2 min 0 W/m 3,9 C 17,7 C 12,2 km/h (2 Bft)
22/03/2012 16:10 17,1 C 41 % 1022,9 hPa 0,0 mm 6,1 km/h (2 Bft) S 180 2 min 0 W/m 3,7 C 17,1 C 11,5 km/h (2 Bft)
22/03/2012 16:20 16,9 C 43 % 1023,0 hPa 0,0 mm 7,2 km/h (2 Bft) S-SO 202 2 min 0 W/m 4,2 C 16,9 C 10,4 km/h (2 Bft)
22/03/2012 16:30 16,8 C 41 % 1023,2 hPa 0,0 mm 4,7 km/h (1 Bft) S-SO 202 2 min 0 W/m 3,5 C 16,8 C 6,5 km/h (2 Bft)
22/03/2012 16:40 17,0 C 42 % 1023,3 hPa 0,0 mm 6,5 km/h (2 Bft) S 180 2 min 0 W/m 4,0 C 17,0 C 9,0 km/h (2 Bft)
22/03/2012 16:50 17,1 C 44 % 1023,2 hPa 0,0 mm 3,6 km/h (1 Bft) S-SE 157 2 min 0 W/m 4,8 C 17,1 C 6,5 km/h (2 Bft)
22/03/2012 17:00 17,3 C 44 % 1023,1 hPa 0,0 mm 7,2 km/h (2 Bft) S 180 2 min 0 W/m 4,9 C 17,3 C 15,5 km/h (3 Bft)
22/03/2012 17:10 17,2 C 44 % 1022,9 hPa 0,0 mm 7,6 km/h (2 Bft) S-SO 202 2 min 0 W/m 4,8 C 17,2 C 15,1 km/h (3 Bft)
22/03/2012 17:20 16,9 C 46 % 1022,9 hPa 0,0 mm 10,1 km/h (2 Bft) SO 225 2 min 0 W/m 5,2 C 16,9 C 15,5 km/h (3 Bft)
22/03/2012 17:30 16,8 C 48 % 1022,9 hPa 0,0 mm 6,1 km/h (2 Bft) S-SO 202 2 min 0 W/m 5,7 C 16,8 C 11,2 km/h (2 Bft)
22/03/2012 17:40 16,0 C 49 % 1022,9 hPa 0,0 mm 7,9 km/h (2 Bft) SO 225 2 min 0 W/m 5,3 C 16,0 C 11,9 km/h (2 Bft)
22/03/2012 17:50 15,4 C 51 % 1023,1 hPa 0,0 mm 2,5 km/h (1 Bft) SO 225 2 min 0 W/m 5,3 C 15,4 C 3,6 km/h (1 Bft)
22/03/2012 18:00 14,9 C 52 % 1023,2 hPa 0,0 mm 6,8 km/h (2 Bft) O-SO 247 2 min 0 W/m 5,1 C 14,9 C 10,4 km/h (2 Bft)
22/03/2012 18:10 14,6 C 54 % 1023,2 hPa 0,0 mm 3,6 km/h (1 Bft) SO 225 2 min 0 W/m 5,4 C 14,6 C 3,6 km/h (1 Bft)
22/03/2012 18:20 14,3 C 55 % 1023,2 hPa 0,0 mm 0,0 km/h (0 Bft) S-SO 202 2 min 0 W/m 5,4 C 14,3 C 0,0 km/h (0 Bft)
22/03/2012 18:30 13,9 C 55 % 1023,3 hPa 0,0 mm 0,0 km/h (0 Bft) S-SO 202 2 min 0 W/m 5,0 C 13,9 C 0,0 km/h (0 Bft)
22/03/2012 18:40 13,6 C 55 % 1023,2 hPa 0,0 mm 0,0 km/h (0 Bft) S-SO 202 2 min 0 W/m 4,7 C 13,6 C 0,0 km/h (0 Bft)
22/03/2012 18:50 13,3 C 56 % 1023,3 hPa 0,0 mm 0,0 km/h (0 Bft) S-SO 202 2 min 0 W/m 4,7 C 13,3 C 0,0 km/h (0 Bft)
22/03/2012 19:00 12,9 C 57 % 1023,4 hPa 0,0 mm 0,0 km/h (0 Bft) S-SO 202 2 min 0 W/m 4,6 C 12,9 C 0,0 km/h (0 Bft)
22/03/2012 19:10 12,6 C 59 % 1023,7 hPa 0,0 mm 0,0 km/h (0 Bft) S-SO 202 0 min 0 W/m 4,8 C 12,6 C 0,0 km/h (0 Bft)
22/03/2012 19:20 12,3 C 59 % 1023,8 hPa 0,0 mm 0,0 km/h (0 Bft) S-SO 202 0 min 0 W/m 4,5 C 12,3 C 0,0 km/h (0 Bft)
22/03/2012 19:30 12,2 C 61 % 1024,0 hPa 0,0 mm 0,0 km/h (0 Bft) S-SO 202 0 min 0 W/m 4,9 C 12,2 C 0,0 km/h (0 Bft)
22/03/2012 19:40 12,0 C 61 % 1024,0 hPa 0,0 mm 0,0 km/h (0 Bft) S-SO 202 0 min 0 W/m 4,7 C 12,0 C 0,0 km/h (0 Bft)
22/03/2012 19:50 11,9 C 62 % 1024,1 hPa 0,0 mm 0,0 km/h (0 Bft) S-SO 202 0 min 0 W/m 4,9 C 11,9 C 0,0 km/h (0 Bft)
22/03/2012 20:00 11,8 C 62 % 1024,2 hPa 0,0 mm 0,0 km/h (0 Bft) S-SO 202 0 min 0 W/m 4,8 C 11,8 C 0,0 km/h (0 Bft)
22/03/2012 20:10 11,6 C 62 % 1024,1 hPa 0,0 mm 0,0 km/h (0 Bft) S-SO 202 0 min 0 W/m 4,6 C 11,6 C 0,0 km/h (0 Bft)
22/03/2012 20:20 11,5 C 63 % 1024,3 hPa 0,0 mm 0,0 km/h (0 Bft) S-SO 202 0 min 0 W/m 4,7 C 11,5 C 0,0 km/h (0 Bft)
22/03/2012 20:30 11,5 C 63 % 1024,4 hPa 0,0 mm 0,0 km/h (0 Bft) O-NO 292 0 min 0 W/m 4,7 C 11,5 C 0,0 km/h (0 Bft)
22/03/2012 20:40 11,5 C 64 % 1024,5 hPa 0,0 mm 0,0 km/h (0 Bft) O-NO 292 0 min 0 W/m 4,9 C 11,5 C 0,0 km/h (0 Bft)
22/03/2012 20:50 11,4 C 64 % 1024,6 hPa 0,0 mm 0,0 km/h (0 Bft) O-NO 292 0 min 0 W/m 4,8 C 11,4 C 0,0 km/h (0 Bft)
22/03/2012 21:00 11,3 C 66 % 1024,7 hPa 0,0 mm 0,0 km/h (0 Bft) SO 225 0 min 0 W/m 5,2 C 11,3 C 0,0 km/h (0 Bft)
22/03/2012 21:10 11,1 C 65 % 1024,6 hPa 0,0 mm 0,0 km/h (0 Bft) SO 225 0 min 0 W/m 4,8 C 11,1 C 0,0 km/h (0 Bft)
22/03/2012 21:20 11,3 C 66 % 1024,4 hPa 0,0 mm 0,0 km/h (0 Bft) N 360 0 min 0 W/m 5,2 C 11,3 C 0,0 km/h (0 Bft)
22/03/2012 21:30 11,2 C 67 % 1024,4 hPa 0,0 mm 0,0 km/h (0 Bft) N 360 0 min 0 W/m 5,3 C 11,2 C 0,0 km/h (0 Bft)
22/03/2012 21:40 10,9 C 66 % 1024,6 hPa 0,0 mm 0,0 km/h (0 Bft) N 360 0 min 0 W/m 4,8 C 10,9 C 0,0 km/h (0 Bft)
22/03/2012 21:50 10,7 C 66 % 1024,6 hPa 0,0 mm 0,0 km/h (0 Bft) N 360 0 min 0 W/m 4,6 C 10,7 C 0,0 km/h (0 Bft)
22/03/2012 22:00 10,4 C 67 % 1024,9 hPa 0,0 mm 0,0 km/h (0 Bft) N 360 0 min 0 W/m 4,5 C 10,4 C 0,0 km/h (0 Bft)
22/03/2012 22:10 10,0 C 68 % 1025,0 hPa 0,0 mm 0,0 km/h (0 Bft) NE 45 0 min 0 W/m 4,4 C 10,0 C 0,0 km/h (0 Bft)
22/03/2012 22:20 9,8 C 69 % 1024,8 hPa 0,0 mm 0,0 km/h (0 Bft) NE 45 0 min 0 W/m 4,4 C 9,8 C 0,0 km/h (0 Bft)
22/03/2012 22:30 9,6 C 69 % 1024,8 hPa 0,0 mm 0,0 km/h (0 Bft) NE 45 0 min 0 W/m 4,2 C 9,6 C 0,0 km/h (0 Bft)
22/03/2012 22:40 9,3 C 69 % 1024,6 hPa 0,0 mm 0,0 km/h (0 Bft) NE 45 0 min 0 W/m 3,9 C 9,3 C 0,0 km/h (0 Bft)
22/03/2012 22:50 8,9 C 70 % 1024,7 hPa 0,0 mm 0,0 km/h (0 Bft) NE 45 0 min 0 W/m 3,7 C 8,9 C 0,0 km/h (0 Bft)
22/03/2012 23:00 8,6 C 72 % 1024,8 hPa 0,0 mm 0,0 km/h (0 Bft) NE 45 0 min 0 W/m 3,8 C 8,6 C 0,0 km/h (0 Bft)
22/03/2012 23:10 8,3 C 72 % 1024,9 hPa 0,0 mm 0,0 km/h (0 Bft) NE 45 0 min 0 W/m 3,6 C 8,3 C 0,0 km/h (0 Bft)
22/03/2012 23:20 8,2 C 73 % 1025,0 hPa 0,0 mm 0,0 km/h (0 Bft) NE 45 0 min 0 W/m 3,7 C 8,2 C 0,0 km/h (0 Bft)
_ Min-Heure 07:20 15:40 01:30 - 23:20 - - - - 16:30 07:20 23:20
Minimum _ 6,9 C 38 % 1022,4 hPa - 0,0 km/h (0 Bft) - - - - 3,5 C 6,9 C 0,0 km/h (0 Bft)
_ Max-Heure 15:20 09:00 23:20 15:50 15:40 - - 19:00 23:20 12:50 15:20 17:20
Maximum _ 18,4 C 82 % 1025,0 hPa 0,1 mm 10,4 km/h
SO (2 Bft)
- - 2 min 0 W/m 8,0 C 18,4 C 15,5 km/h
SO (3 Bft)
Moyenne _ 11,6 C 65 % 1023,4 hPa #0,1 mm 1,7 km/h (1 Bft) E-SE - #2:24 h 0 W/m 5,0 C 11,6 C 2,8 km/h (1 Bft)
Saint Bonnet de Bellac- Haute Vienne - France